Regional Weather Roundup
Issued by NWS Bismarck, ND

Home | Current Version | Previous Version | Text Only | Print | Product List | Glossary On
Versions: 1 2 3 4 5 6 7 8 9 10 11 12 13 14 15 16 17 18 19 20 21 22 23 24 25 26 27 28 29 30 31 32 33 34 35 36 37 38 39 40 41 42 43 44 45 46 47 48 49 50
000
ASUS43 KBIS 250202
RWRBIS

NWR BROADCAST TEXT
NATIONAL WEATHER SERVICE BISMARCK ND
900 PM CDT MON APR 24 2017

NOTE: "FAIR" INDICATES FEW OR NO CLOUDS BELOW 12,000 FEET WITH NO
SIGNIFICANT WEATHER AND/OR OBSTRUCTIONS TO VISIBILITY.


CITY           SKY/WX    TMP DP  RH WIND       PRES   REMARKS
WILLISTON      CLOUDY    32  26  78 NE15      29.78R
MINOT          CLOUDY    33  28  81 N10       29.77R
MINOT AFB      CLOUDY    32  27  80 NE12      29.77R
BISMARCK       CLOUDY    35  30  82 N14       29.71R
DICKINSON      CLOUDY    31  27  85 NE16      29.68R WCI  20
GARRISON         N/A     31  27  85 NE10      29.74R
HETTINGER ARPT CLOUDY    36  31  82 NE15      29.67R
JAMESTOWN      CLOUDY    33  32  96 N15       29.65R
HAZEN          CLOUDY    32  30  93 NE8       29.76R
LINTON           N/A     36  36 100 N14       29.70R
MANDAN         CLOUDY    32  32 100 N14       29.71R
STANLEY        CLOUDY    28  28 100 NE13G18   29.79R WCI  18
TIOGA          CLOUDY    28  28 100 NE18      29.78S WCI  16
WATFORD CITY   CLOUDY    30  28  93 NE13      29.76R
$$

CITY           SKY/WX    TMP DP  RH WIND       PRES   REMARKS
GRAND FORKS    CLOUDY    36  34  92 N17G24    29.66R
GRAND FORKS AF CLOUDY    33  33  99 N18       29.67R
DEVILS LAKE    CLOUDY    31  30  96 NE16      29.72R WCI  20
FARGO          CLOUDY    39  37  92 N20       29.59R
CAVALIER       CLOUDY    32  28  86 N15       29.73R
GRAFTON        CLOUDY    32  32 100 N18       29.72R FOG
GWINNER        CLOUDY    37  36  93 MISG      29.61R
LANGDON        DRIZZLE   30  30 100 N21       29.73R WCI  17
ROLLA          CLOUDY    28  28 100 NE18      29.76R WCI  16
$$

CITY           SKY/WX    TMP DP  RH WIND       PRES   REMARKS
ABERDEEN       CLOUDY    39  33  79 N18       29.64R
MOBRIDGE       CLOUDY    41  32  70 N13       29.64R
BUFFALO          N/A     44  38  79 NE13      29.57R
RAPID CITY     MOCLDY    51  38  60 NE12      29.58S
GLASGOW        CLOUDY    35  26  69 E18       29.74R
SIDNEY         CLOUDY    34  28  79 NE13      29.76R
WOLF POINT     CLOUDY    35  26  69 E16       29.77R
GLENDIVE       CLOUDY    36  30  79 NE14      29.71R
MILES CITY     CLOUDY    46  37  71 NE17      29.64R
BAKER          CLOUDY    41  34  76 NE13      29.66R
$$

CITY           SKY/WX    TMP DP  RH WIND       PRES   REMARKS
BILLINGS       CLOUDY    46  41  82 NE15      29.58R
GREAT FALLS    CLOUDY    47  37  68 NE14      29.62R
$$




USA.gov is the U.S. government's official web portal to all federal, state and local government web resources and services.